Weather Roundup
Issued by NWS Chicago, IL

Home | Current Version | Previous Version | Text Only | Print | Product List | Glossary Off
Versions: 1 2 3 4 5 6 7 8 9 10 11 12 13 14 15 16 17 18 19 20 21 22 23 24 25 26 27 28 29 30 31 32 33 34 35 36 37 38 39 40 41 42 43 44 45 46 47 48 49 50

000
NZUS59 KLOT 250706
HRRLOT

CHICAGO AREA WEATHER ROUNDUP
NATIONAL WEATHER SERVICE CHICAGO/ROMEOVILLE IL
100 AM CST THU DEC 25 2014

NOTE: "FAIR" INDICATES FEW OR NO CLOUDS BELOW 12,000 FEET WITH NO
SIGNIFICANT WEATHER AND/OR OBSTRUCTIONS TO VISIBILITY.

* THESE STATIONS ARE NOT UNDER NWS QUALITY CONTROL. THEY ALSO MAY NOT
  REPORT WEATHER SUCH AS PRECIPITATION OR FOG.

ILZ005-006-012>014-019>023-250800-
NORTHEAST ILLINOIS

CITY           SKY/WX    TMP DP  RH WIND       PRES   REMARKS
OHARE          CLOUDY    36  31  82 W12       29.66R
MIDWAY         CLOUDY    38  32  79 W15       29.67R
AURORA         CLOUDY    36  32  85 W15       29.69R
LANSING*       CLOUDY    36  32  87 W14       29.68R
JOLIET*        CLOUDY    36  33  88 W9G16     29.71R
WAUKEGAN       CLOUDY    36  30  79 W10       29.63R
DUPAGE AIRPORT CLOUDY    36  32  85 W14       29.67R
WHEELING       MOCLDY    36  30  79 W10       29.67R
KANKAKEE*      CLOUDY    36  34  92 W14       29.73R
MORRIS*        CLOUDY    36  34  92 W15       29.71R
LEWIS AIRPORT* CLOUDY    36  33  92 W16       29.70R
NORTHERLY IS     N/A     37  31  79 W10         N/A
$$

WIZ051-052-058>065-066-070>072-250800-
SOUTHEAST WISCONSIN

CITY           SKY/WX    TMP DP  RH WIND       PRES   REMARKS
MILWAUKEE      CLOUDY    36  29  75 W10       29.61R
KENOSHA*       CLOUDY    36  31  82 W14       29.63R
RACINE*        CLOUDY    36  30  79 W10       29.63R
BURLINGTON     CLOUDY    33  31  92 W12       29.64R WCI  25
WAUKESHA       CLOUDY    32  30  93 W12       29.62R WCI  23
WEST BEND      CLOUDY    34  30  86 W12       29.59R WCI  25
$$

INZ001>003-010>013-019-020-250800-
NORTHWEST INDIANA

CITY           SKY/WX    TMP DP  RH WIND       PRES   REMARKS
GARY*          CLOUDY    38  30  72 W10       29.68R
MICHIGAN CITY* NOT AVBL
RENSSELAER*    NOT AVBL
VALPARAISO     CLOUDY    36  32  85 W14       29.68R
$$

LMZ740>746-250800-
SOUTHERN LAKE MICHIGAN

STATION/POSITION TIME  SKY/WX   TEMP WIND        PRES    VSBY
                                AIR  DIR/SP/G
                 (UTC)          (F)  (DEG/KT/KT) (MB)    (MI)
HARRISON CRIB    0700            37  270/ 20/ 23   N/A
BURNHAM HARBOR   0700            37  250/  8/ 15   N/A
CALUMET HARBOR   0700            37  250/  7/ 11 1003.6R
BURNS HARBOR     NOT AVBL
MICHIGAN CITY    0700            37  240/ 24/ 27   N/A
$$

ABBREVIATIONS USED IN REMARKS
   TC - TEMPERATURE IN CELSIUS
  WCI - WIND CHILL INDEX
   HX - HEAT INDEX
  VSB - VISIBILITY
$$



USA.gov is the U.S. government's official web portal to all federal, state and local government web resources and services.